,,,PA_Meas_PMT16A,,PR_Meas_QMR101_102,,RH_Meas_QMH101,,SR_Meas_QMS101,,TA_Meas_QMH101,,GenWind,,GenWind,
date,time,status,PA,status,PR,status,RH,status,SR,status,TA,status,DirAvg,status,SpdAvg,
2012-12-08, 00:00:04,VALID,1010.96,VALID,0,VALID,104,VALID,0,VALID,23.5576,VALID,321,VALID,0.774219,
2012-12-08, 00:01:04,VALID,1010.94,VALID,0,VALID,104,VALID,0.112112,VALID,23.5966,VALID,340,VALID,0.494141,
2012-12-08, 00:02:04,VALID,1010.93,VALID,0,VALID,104,VALID,0.112112,VALID,23.5771,VALID,351,VALID,0.906641,
2012-12-08, 00:03:04,VALID,1010.9,VALID,0,VALID,104,VALID,0,VALID,23.5771,VALID,18,VALID,0.341406,
2012-12-08, 00:04:04,VALID,1010.9,VALID,0,VALID,104,VALID,0.112112,VALID,23.5558,VALID,18,VALID,0.44375,
2012-12-08, 00:05:04,VALID,1010.88,VALID,0,VALID,104,VALID,0,VALID,23.5966,VALID,26,VALID,0.35625,
2012-12-08, 00:06:04,VALID,1010.85,VALID,0,VALID,104,VALID,0.112112,VALID,23.6161,VALID,22,VALID,0.201953,
2012-12-08, 00:07:04,VALID,1010.85,VALID,0,VALID,104,VALID,0,VALID,23.5771,VALID,22,VALID,0.217578,
2012-12-08, 00:08:04,VALID,1010.83,VALID,0,VALID,104,VALID,0.112112,VALID,23.5753,VALID,34,VALID,0.300391,
2012-12-08, 00:09:04,VALID,1010.83,VALID,0,VALID,104,VALID,0,VALID,23.5576,VALID,31,VALID,0.299609,
2012-12-08, 00:10:04,VALID,1010.79,VALID,0,VALID,104,VALID,0,VALID,23.5771,VALID,351,VALID,0.220703,
2012-12-08, 00:11:04,VALID,1010.79,VALID,0,VALID,104,VALID,0.112112,VALID,23.5576,VALID,351,VALID,0.272656,
2012-12-08, 00:12:04,VALID,1010.8,VALID,0,VALID,104,VALID,0,VALID,23.5966,VALID,351,VALID,0.387891,
2012-12-08, 00:13:04,VALID,1010.78,VALID,0,VALID,104,VALID,0.112112,VALID,23.5558,VALID,4,VALID,0.487891,
2012-12-08, 00:14:04,VALID,1010.77,VALID,0,VALID,104,VALID,0,VALID,23.5966,VALID,5,VALID,0.571875,
2012-12-08, 00:15:04,VALID,1010.75,VALID,0,VALID,104,VALID,0.112112,VALID,23.5771,VALID,3,VALID,0.408984,
2012-12-08, 00:16:04,VALID,1010.71,VALID,0,VALID,104,VALID,0,VALID,23.5576,VALID,3,VALID,0.338672,
2012-12-08, 00:17:04,VALID,1010.7,VALID,0,VALID,104,VALID,0,VALID,23.5753,VALID,3,VALID,0.174219,
2012-12-08, 00:18:04,VALID,1010.71,VALID,0,VALID,104,VALID,0,VALID,23.5771,VALID,3,VALID,0.260156,
2012-12-08, 00:19:04,VALID,1010.68,VALID,0,VALID,104,VALID,0,VALID,23.5966,VALID,3,VALID,0.307422,
2012-12-08, 00:20:04,VALID,1010.67,VALID,0,VALID,104,VALID,0,VALID,23.5753,VALID,358,VALID,0.539453,
2012-12-08, 00:21:04,VALID,1010.66,VALID,0,VALID,104,VALID,0,VALID,23.5771,VALID,356,VALID,0.386328,
2012-12-08, 00:22:04,VALID,1010.65,VALID,0,VALID,104,VALID,0,VALID,23.5771,VALID,356,VALID,0.357812,
2012-12-08, 00:23:04,VALID,1010.66,VALID,0,VALID,104,VALID,0,VALID,23.5771,VALID,356,VALID,0.117969,
2012-12-08, 00:24:04,VALID,1010.66,VALID,0,VALID,104,VALID,0,VALID,23.5558,VALID,356,VALID,0,
2012-12-08, 00:25:04,VALID,1010.67,VALID,0,VALID,104,VALID,0,VALID,23.5771,VALID,356,VALID,0.313281,
2012-12-08, 00:26:04,VALID,1010.66,VALID,0,VALID,104,VALID,0,VALID,23.5169,VALID,356,VALID,0.386719,
2012-12-08, 00:27:04,VALID,1010.69,VALID,0,VALID,104,VALID,0,VALID,23.5576,VALID,356,VALID,0.255078,
2012-12-08, 00:28:04,VALID,1010.7,VALID,0,VALID,104,VALID,0.112112,VALID,23.5576,VALID,356,VALID,0.478906,
2012-12-08, 00:29:04,VALID,1010.69,VALID,0,VALID,104,VALID,0,VALID,23.5576,VALID,356,VALID,0.522656,
2012-12-08, 00:30:04,VALID,1010.69,VALID,0,VALID,104,VALID,0,VALID,23.5381,VALID,353,VALID,0.517578,
2012-12-08, 00:31:04,VALID,1010.69,VALID,0,VALID,104,VALID,0,VALID,23.5186,VALID,353,VALID,0.460156,
2012-12-08, 00:32:04,VALID,1010.7,VALID,0,VALID,104,VALID,0.112112,VALID,23.5381,VALID,353,VALID,0.498047,
2012-12-08, 00:33:04,VALID,1010.71,VALID,0,VALID,104,VALID,0,VALID,23.5381,VALID,353,VALID,0.586328,
2012-12-08, 00:34:04,VALID,1010.68,VALID,0,VALID,104,VALID,0,VALID,23.5381,VALID,353,VALID,0.148828,
2012-12-08, 00:35:04,VALID,1010.69,VALID,0,VALID,104,VALID,0,VALID,23.4974,VALID,353,VALID,0.324609,
2012-12-08, 00:36:04,VALID,1010.65,VALID,0,VALID,104,VALID,0.112112,VALID,23.5186,VALID,353,VALID,0.206641,
2012-12-08, 00:37:04,VALID,1010.67,VALID,0,VALID,104,VALID,0,VALID,23.5186,VALID,353,VALID,0,
2012-12-08, 00:38:04,VALID,1010.67,VALID,0,VALID,104,VALID,0,VALID,23.5186,VALID,353,VALID,0.759375,
2012-12-08, 00:39:04,VALID,1010.68,VALID,0,VALID,104,VALID,0,VALID,23.4992,VALID,353,VALID,0.194922,
2012-12-08, 00:40:04,VALID,1010.62,VALID,0,VALID,104,VALID,0,VALID,23.5381,VALID,353,VALID,0.0757812,
2012-12-08, 00:41:04,VALID,1010.63,VALID,0,VALID,104,VALID,0,VALID,23.5381,VALID,353,VALID,0.340234,
2012-12-08, 00:42:04,VALID,1010.62,VALID,0,VALID,104,VALID,0.112112,VALID,23.5594,VALID,336,VALID,0.766016,
2012-12-08, 00:43:04,VALID,1010.61,VALID,0,VALID,104,VALID,0,VALID,23.5186,VALID,330,VALID,0.625,
2012-12-08, 00:44:04,VALID,1010.6,VALID,0,VALID,104,VALID,0,VALID,23.5381,VALID,332,VALID,0.132031,
2012-12-08, 00:45:04,VALID,1010.58,VALID,0,VALID,104,VALID,0,VALID,23.5576,VALID,332,VALID,0.01875,
2012-12-08, 00:46:04,VALID,1010.57,VALID,0,VALID,104,VALID,0,VALID,23.5576,VALID,332,VALID,0.226953,
2012-12-08, 00:47:04,VALID,1010.55,VALID,0,VALID,104,VALID,0,VALID,23.5381,VALID,332,VALID,0.146875,
2012-12-08, 00:48:04,VALID,1010.53,VALID,0,VALID,104,VALID,0,VALID,23.5576,VALID,332,VALID,0.369922,
2012-12-08, 00:49:04,VALID,1010.53,VALID,0,VALID,104,VALID,0,VALID,23.5381,VALID,332,VALID,0.507422,
2012-12-08, 00:50:04,VALID,1010.5,VALID,0,VALID,104,VALID,0,VALID,23.5594,VALID,332,VALID,0.455078,
2012-12-08, 00:51:04,VALID,1010.51,VALID,0,VALID,104,VALID,0,VALID,23.5186,VALID,332,VALID,0.388672,
2012-12-08, 00:52:04,VALID,1010.48,VALID,0,VALID,104,VALID,0,VALID,23.5381,VALID,332,VALID,0.374609,
2012-12-08, 00:53:04,VALID,1010.47,VALID,0,VALID,104,VALID,0,VALID,23.5186,VALID,332,VALID,0.157422,
2012-12-08, 00:54:04,VALID,1010.49,VALID,0,VALID,104,VALID,0,VALID,23.5381,VALID,332,VALID,0.397266,
2012-12-08, 00:55:04,VALID,1010.47,VALID,0,VALID,104,VALID,0,VALID,23.5381,VALID,332,VALID,0.112891,
2012-12-08, 00:56:04,VALID,1010.47,VALID,0,VALID,104,VALID,0,VALID,23.5576,VALID,332,VALID,0,
2012-12-08, 00:57:04,VALID,1010.44,VALID,0,VALID,104,VALID,0,VALID,23.5381,VALID,332,VALID,0,
2012-12-08, 00:58:04,VALID,1010.42,VALID,0,VALID,104,VALID,0,VALID,23.6161,VALID,332,VALID,0,
2012-12-08, 00:59:04,VALID,1010.42,VALID,0,VALID,104,VALID,0,VALID,23.5381,VALID,332,VALID,0.0960938,
2012-12-08, 01:00:04,VALID,1010.4,VALID,0,VALID,104,VALID,0,VALID,23.5381,VALID,332,VALID,0.294141,
2012-12-08, 01:01:04,VALID,1010.39,VALID,0,VALID,104,VALID,0,VALID,23.5381,VALID,332,VALID,0.318359,
2012-12-08, 01:02:04,VALID,1010.37,VALID,0,VALID,104,VALID,0,VALID,23.5381,VALID,332,VALID,0.351953,
2012-12-08, 01:03:04,VALID,1010.33,VALID,0,VALID,104,VALID,0,VALID,23.5381,VALID,332,VALID,0.227734,
2012-12-08, 01:04:04,VALID,1010.32,VALID,0,VALID,104,VALID,0,VALID,23.5169,VALID,332,VALID,0.466016,
2012-12-08, 01:05:04,VALID,1010.28,VALID,0,VALID,104,VALID,0,VALID,23.5576,VALID,332,VALID,0.203516,
2012-12-08, 01:06:04,VALID,1010.28,VALID,0,VALID,104,VALID,0,VALID,23.5186,VALID,332,VALID,0.167187,
2012-12-08, 01:07:04,VALID,1010.28,VALID,0,VALID,104,VALID,0,VALID,23.5381,VALID,332,VALID,0,
2012-12-08, 01:08:04,VALID,1010.27,VALID,0,VALID,104,VALID,0,VALID,23.5576,VALID,332,VALID,0,
2012-12-08, 01:09:04,VALID,1010.25,VALID,0,VALID,104,VALID,0,VALID,23.5381,VALID,332,VALID,0,
2012-12-08, 01:10:04,VALID,1010.27,VALID,0,VALID,104,VALID,0,VALID,23.5789,VALID,332,VALID,0,
2012-12-08, 01:11:04,VALID,1010.26,VALID,0,VALID,104,VALID,0,VALID,23.5771,VALID,332,VALID,0,
2012-12-08, 01:12:04,VALID,1010.28,VALID,0,VALID,104,VALID,0,VALID,23.5381,VALID,332,VALID,0,
2012-12-08, 01:13:04,VALID,1010.26,VALID,0,VALID,104,VALID,0,VALID,23.5363,VALID,332,VALID,0,
2012-12-08, 01:14:04,VALID,1010.29,VALID,0,VALID,104,VALID,0.112112,VALID,23.5381,VALID,332,VALID,0,
2012-12-08, 01:15:04,VALID,1010.28,VALID,0,VALID,104,VALID,0,VALID,23.5186,VALID,332,VALID,0,
2012-12-08, 01:16:04,VALID,1010.24,VALID,0,VALID,104,VALID,0,VALID,23.5381,VALID,332,VALID,0,
2012-12-08, 01:17:04,VALID,1010.21,VALID,0,VALID,104,VALID,0,VALID,23.5576,VALID,332,VALID,0,
2012-12-08, 01:18:04,VALID,1010.18,VALID,0,VALID,104,VALID,0,VALID,23.5381,VALID,332,VALID,0.430859,
2012-12-08, 01:19:04,VALID,1010.15,VALID,0,VALID,104,VALID,0,VALID,23.5576,VALID,332,VALID,0.522266,
2012-12-08, 01:20:04,VALID,1010.11,VALID,0,VALID,104,VALID,0,VALID,23.5771,VALID,332,VALID,0.523438,
2012-12-08, 01:21:04,VALID,1010.06,VALID,0,VALID,104,VALID,0,VALID,23.5576,VALID,332,VALID,0.241406,
2012-12-08, 01:22:04,VALID,1010.05,VALID,0,VALID,104,VALID,0,VALID,23.5771,VALID,332,VALID,0.452344,
2012-12-08, 01:23:04,VALID,1010,VALID,0,VALID,104,VALID,0,VALID,23.5966,VALID,332,VALID,0.543359,
2012-12-08, 01:24:04,VALID,1009.98,VALID,0,VALID,104,VALID,0,VALID,23.6161,VALID,332,VALID,0.247266,
2012-12-08, 01:25:04,VALID,1009.98,VALID,0,VALID,104,VALID,0,VALID,23.5966,VALID,332,VALID,0.0667969,
2012-12-08, 01:26:04,VALID,1009.95,VALID,0,VALID,104,VALID,0,VALID,23.6161,VALID,332,VALID,0.05,
2012-12-08, 01:27:04,VALID,1009.95,VALID,0,VALID,104,VALID,0,VALID,23.6161,VALID,34,VALID,0.482422,
2012-12-08, 01:28:04,VALID,1009.93,VALID,0,VALID,104,VALID,0,VALID,23.5771,VALID,76,VALID,0.541797,
2012-12-08, 01:29:04,VALID,1009.88,VALID,0,VALID,104,VALID,0,VALID,23.5966,VALID,76,VALID,0.182031,
2012-12-08, 01:30:04,VALID,1009.86,VALID,0,VALID,104,VALID,0,VALID,23.5771,VALID,76,VALID,0,
2012-12-08, 01:31:04,VALID,1009.86,VALID,0,VALID,104,VALID,0,VALID,23.5771,VALID,76,VALID,0.157031,
2012-12-08, 01:32:05,VALID,1009.82,VALID,0,VALID,104,VALID,0,VALID,23.5753,VALID,76,VALID,0.391797,
2012-12-08, 01:33:04,VALID,1009.81,VALID,0,VALID,104,VALID,0,VALID,23.5966,VALID,76,VALID,0.0945313,
2012-12-08, 01:34:05,VALID,1009.81,VALID,0,VALID,104,VALID,0,VALID,23.5966,VALID,76,VALID,0.096875,
2012-12-08, 01:35:05,VALID,1009.81,VALID,0,VALID,104,VALID,0,VALID,23.5771,VALID,76,VALID,0.0457031,
2012-12-08, 01:36:05,VALID,1009.8,VALID,0,VALID,104,VALID,0,VALID,23.5771,VALID,76,VALID,0,
2012-12-08, 01:37:05,VALID,1009.8,VALID,0,VALID,104,VALID,0,VALID,23.5771,VALID,76,VALID,0,
2012-12-08, 01:38:05,VALID,1009.8,VALID,0,VALID,104,VALID,0,VALID,23.5771,VALID,76,VALID,0,
2012-12-08, 01:39:05,VALID,1009.77,VALID,0,VALID,104,VALID,0,VALID,23.5771,VALID,76,VALID,0,
2012-12-08, 01:40:05,VALID,1009.76,VALID,0,VALID,104,VALID,0,VALID,23.5576,VALID,76,VALID,0.00117188,
2012-12-08, 01:41:05,VALID,1009.75,VALID,0,VALID,104,VALID,0,VALID,23.5576,VALID,76,VALID,0.192188,
2012-12-08, 01:42:05,VALID,1009.75,VALID,0,VALID,104,VALID,0,VALID,23.5576,VALID,76,VALID,0.0105469,
2012-12-08, 01:43:05,VALID,1009.74,VALID,0,VALID,104,VALID,0,VALID,23.5576,VALID,76,VALID,0,
2012-12-08, 01:44:05,VALID,1009.7,VALID,0,VALID,104,VALID,0.112112,VALID,23.5576,VALID,76,VALID,0,
2012-12-08, 01:45:05,VALID,1009.72,VALID,0,VALID,104,VALID,0,VALID,23.5381,VALID,76,VALID,0.141797,
2012-12-08, 01:46:05,VALID,1009.71,VALID,0,VALID,104,VALID,0,VALID,23.5381,VALID,76,VALID,0.172656,
2012-12-08, 01:47:05,VALID,1009.71,VALID,0,VALID,104,VALID,0,VALID,23.5381,VALID,76,VALID,0.198047,
2012-12-08, 01:48:05,VALID,1009.68,VALID,0,VALID,104,VALID,0,VALID,23.5381,VALID,76,VALID,0.246875,
2012-12-08, 01:49:05,VALID,1009.72,VALID,0,VALID,104,VALID,0,VALID,23.5186,VALID,76,VALID,0,
2012-12-08, 01:50:05,VALID,1009.72,VALID,0,VALID,104,VALID,0,VALID,23.5186,VALID,76,VALID,0.152344,
2012-12-08, 01:51:05,VALID,1009.7,VALID,0,VALID,104,VALID,0,VALID,23.5169,VALID,76,VALID,0.078125,
2012-12-08, 01:52:05,VALID,1009.68,VALID,0,VALID,104,VALID,0,VALID,23.4974,VALID,76,VALID,0.192578,
2012-12-08, 01:53:05,VALID,1009.67,VALID,0,VALID,104,VALID,0,VALID,23.5186,VALID,76,VALID,0.279687,
2012-12-08, 01:54:05,VALID,1009.66,VALID,0,VALID,104,VALID,0,VALID,23.5186,VALID,76,VALID,0.0347656,
2012-12-08, 01:55:05,VALID,1009.65,VALID,0,VALID,104,VALID,0,VALID,23.4992,VALID,76,VALID,0.201172,
2012-12-08, 01:56:05,VALID,1009.66,VALID,0,VALID,104,VALID,0.112112,VALID,23.5169,VALID,76,VALID,0,
2012-12-08, 01:57:05,VALID,1009.64,VALID,0,VALID,104,VALID,0,VALID,23.5381,VALID,76,VALID,0,
2012-12-08, 01:58:05,VALID,1009.61,VALID,0,VALID,104,VALID,0,VALID,23.5186,VALID,76,VALID,0,
2012-12-08, 01:59:05,VALID,1009.6,VALID,0,VALID,104,VALID,0,VALID,23.5381,VALID,76,VALID,0.316016,
2012-12-08, 02:00:05,VALID,1009.6,VALID,0,VALID,104,VALID,0,VALID,23.5576,VALID,76,VALID,0.265625,
2012-12-08, 02:01:05,VALID,1009.57,VALID,0,VALID,104,VALID,0,VALID,23.5186,VALID,76,VALID,0.360938,
2012-12-08, 02:02:05,VALID,1009.53,VALID,0,VALID,104,VALID,0,VALID,23.5381,VALID,76,VALID,0.228516,
2012-12-08, 02:03:05,VALID,1009.51,VALID,0,VALID,104,VALID,0,VALID,23.5381,VALID,76,VALID,0.428516,
2012-12-08, 02:04:05,VALID,1009.49,VALID,0,VALID,104,VALID,0,VALID,23.5381,VALID,76,VALID,0.425391,
2012-12-08, 02:05:05,VALID,1009.49,VALID,0,VALID,104,VALID,0,VALID,23.5576,VALID,76,VALID,0.402344,
2012-12-08, 02:06:05,VALID,1009.46,VALID,0,VALID,104,VALID,0,VALID,23.5966,VALID,76,VALID,0.295703,
2012-12-08, 02:07:05,VALID,1009.45,VALID,0,VALID,104,VALID,0,VALID,23.5771,VALID,76,VALID,0.323438,
2012-12-08, 02:08:05,VALID,1009.43,VALID,0,VALID,104,VALID,0,VALID,23.5381,VALID,76,VALID,0.0980469,
2012-12-08, 02:09:05,VALID,1009.45,VALID,0,VALID,104,VALID,0,VALID,23.5381,VALID,76,VALID,0.270312,
2012-12-08, 02:10:05,VALID,1009.43,VALID,0,VALID,104,VALID,0,VALID,23.5186,VALID,76,VALID,0.115625,
2012-12-08, 02:11:05,VALID,1009.43,VALID,0,VALID,104,VALID,0,VALID,23.5381,VALID,76,VALID,0,
2012-12-08, 02:12:05,VALID,1009.42,VALID,0,VALID,104,VALID,0,VALID,23.5186,VALID,76,VALID,0.258203,
2012-12-08, 02:13:05,VALID,1009.39,VALID,0,VALID,104,VALID,0,VALID,23.5186,VALID,76,VALID,0.285547,
2012-12-08, 02:14:05,VALID,1009.38,VALID,0,VALID,104,VALID,0,VALID,23.4992,VALID,76,VALID,0,
2012-12-08, 02:15:05,VALID,1009.38,VALID,0,VALID,104,VALID,0,VALID,23.5186,VALID,76,VALID,0.0304688,
2012-12-08, 02:16:05,VALID,1009.34,VALID,0,VALID,104,VALID,0,VALID,23.5381,VALID,76,VALID,0.136719,
2012-12-08, 02:17:05,VALID,1009.3,VALID,0,VALID,104,VALID,0,VALID,23.5381,VALID,76,VALID,0,
2012-12-08, 02:18:05,VALID,1009.24,VALID,0,VALID,104,VALID,0,VALID,23.5186,VALID,76,VALID,0.136328,
2012-12-08, 02:19:05,VALID,1009.19,VALID,0,VALID,104,VALID,0,VALID,23.5186,VALID,76,VALID,0,
2012-12-08, 02:20:05,VALID,1009.13,VALID,0,VALID,104,VALID,0,VALID,23.5381,VALID,76,VALID,0,
2012-12-08, 02:21:05,VALID,1009.08,VALID,0,VALID,104,VALID,0,VALID,23.4992,VALID,76,VALID,0.138672,
2012-12-08, 02:22:05,VALID,1009.08,VALID,0,VALID,104,VALID,0,VALID,23.4992,VALID,76,VALID,0.218359,
2012-12-08, 02:23:05,VALID,1009.04,VALID,0,VALID,104,VALID,0,VALID,23.5186,VALID,76,VALID,0.225391,
2012-12-08, 02:24:05,VALID,1009.04,VALID,0,VALID,104,VALID,0,VALID,23.4584,VALID,76,VALID,0.0113281,
2012-12-08, 02:25:05,VALID,1009.04,VALID,0,VALID,104,VALID,0,VALID,23.4992,VALID,76,VALID,0,
2012-12-08, 02:26:05,VALID,1009.04,VALID,0,VALID,104,VALID,0,VALID,23.4602,VALID,76,VALID,0,
2012-12-08, 02:27:05,VALID,1009.04,VALID,0,VALID,104,VALID,0,VALID,23.4584,VALID,76,VALID,0,
2012-12-08, 02:28:05,VALID,1009.02,VALID,0,VALID,104,VALID,0,VALID,23.4389,VALID,76,VALID,0,
2012-12-08, 02:29:05,VALID,1009.02,VALID,0,VALID,104,VALID,0,VALID,23.4602,VALID,76,VALID,0,
2012-12-08, 02:30:05,VALID,1009.02,VALID,0,VALID,104,VALID,0,VALID,23.4584,VALID,76,VALID,0,
2012-12-08, 02:31:05,VALID,1009.02,VALID,0,VALID,104,VALID,0,VALID,23.4779,VALID,76,VALID,0,
2012-12-08, 02:32:05,VALID,1009.04,VALID,0,VALID,104,VALID,0.112112,VALID,23.4779,VALID,76,VALID,0,
2012-12-08, 02:33:05,VALID,1009.03,VALID,0,VALID,104,VALID,0,VALID,23.4779,VALID,76,VALID,0.260156,
2012-12-08, 02:34:05,VALID,1009.04,VALID,0,VALID,104,VALID,0,VALID,23.5381,VALID,76,VALID,0.376563,
2012-12-08, 02:35:05,VALID,1009.03,VALID,0,VALID,104,VALID,0,VALID,23.5186,VALID,76,VALID,0.511719,
2012-12-08, 02:36:05,VALID,1009.04,VALID,0,VALID,104,VALID,0,VALID,23.5381,VALID,76,VALID,0.305859,
2012-12-08, 02:37:05,VALID,1009.03,VALID,0,VALID,104,VALID,0,VALID,23.5186,VALID,76,VALID,0.498047,
2012-12-08, 02:38:05,VALID,1008.98,VALID,0,VALID,104,VALID,0,VALID,23.4602,VALID,76,VALID,0.283203,
2012-12-08, 02:39:05,VALID,1009,VALID,0,VALID,104,VALID,0,VALID,23.4992,VALID,76,VALID,0.423828,
2012-12-08, 02:40:05,VALID,1008.98,VALID,0,VALID,104,VALID,0,VALID,23.4974,VALID,76,VALID,0.217578,
2012-12-08, 02:41:05,VALID,1009,VALID,0,VALID,104,VALID,0,VALID,23.5186,VALID,76,VALID,0.425,
2012-12-08, 02:42:05,VALID,1009,VALID,0,VALID,104,VALID,0,VALID,23.4974,VALID,86,VALID,0.629297,
2012-12-08, 02:43:05,VALID,1009.01,VALID,0,VALID,104,VALID,0,VALID,23.5186,VALID,106,VALID,0.574609,
2012-12-08, 02:44:05,VALID,1008.99,VALID,0,VALID,104,VALID,0,VALID,23.5186,VALID,123,VALID,0.748438,
2012-12-08, 02:45:05,VALID,1008.99,VALID,0,VALID,104,VALID,0,VALID,23.4974,VALID,123,VALID,0.598828,
2012-12-08, 02:46:05,VALID,1008.98,VALID,0,VALID,104,VALID,0,VALID,23.4974,VALID,124,VALID,0.664063,
2012-12-08, 02:47:05,VALID,1008.97,VALID,0,VALID,104,VALID,0,VALID,23.4992,VALID,124,VALID,0.227344,
2012-12-08, 02:48:05,VALID,1008.95,VALID,0,VALID,104,VALID,0,VALID,23.4992,VALID,124,VALID,0.434766,
2012-12-08, 02:49:05,VALID,1008.94,VALID,0,VALID,104,VALID,0,VALID,23.4992,VALID,124,VALID,0.505078,
2012-12-08, 02:50:05,VALID,1008.94,VALID,0,VALID,104,VALID,0,VALID,23.4992,VALID,128,VALID,0.482031,
2012-12-08, 02:51:05,VALID,1008.92,VALID,0,VALID,104,VALID,0,VALID,23.4797,VALID,128,VALID,0.419531,
2012-12-08, 02:52:05,VALID,1008.9,VALID,0,VALID,104,VALID,0,VALID,23.4992,VALID,128,VALID,0.228516,
2012-12-08, 02:53:05,VALID,1008.89,VALID,0,VALID,104,VALID,0,VALID,23.5186,VALID,128,VALID,0.4625,
2012-12-08, 02:54:05,VALID,1008.89,VALID,0,VALID,104,VALID,0,VALID,23.4797,VALID,77,VALID,0.828906,
2012-12-08, 02:55:05,VALID,1008.9,VALID,0,VALID,104,VALID,0,VALID,23.4602,VALID,82,VALID,0.525781,
2012-12-08, 02:56:05,VALID,1008.91,VALID,0,VALID,104,VALID,0,VALID,23.4407,VALID,82,VALID,0.312109,
2012-12-08, 02:57:05,VALID,1008.9,VALID,0,VALID,104,VALID,0,VALID,23.4602,VALID,82,VALID,0.723437,
2012-12-08, 02:58:05,VALID,1008.88,VALID,0,VALID,104,VALID,0,VALID,23.4584,VALID,82,VALID,0.674219,
2012-12-08, 02:59:05,VALID,1008.89,VALID,0,VALID,104,VALID,0,VALID,23.4407,VALID,82,VALID,0.918359,
2012-12-08, 03:00:05,VALID,1008.89,VALID,0,VALID,104,VALID,0,VALID,23.4602,VALID,82,VALID,0.71875,
2012-12-08, 03:01:05,VALID,1008.9,VALID,0,VALID,104,VALID,0,VALID,23.4797,VALID,85,VALID,0.777734,
2012-12-08, 03:02:05,VALID,1008.92,VALID,0,VALID,104,VALID,0,VALID,23.4797,VALID,92,VALID,0.863672,
2012-12-08, 03:03:05,VALID,1008.95,VALID,0,VALID,104,VALID,0,VALID,23.4992,VALID,85,VALID,0.594531,
2012-12-08, 03:04:05,VALID,1008.95,VALID,0,VALID,104,VALID,0,VALID,23.4584,VALID,74,VALID,0.6875,
2012-12-08, 03:05:05,VALID,1009.01,VALID,0,VALID,104,VALID,0,VALID,23.4602,VALID,78,VALID,0.628125,
2012-12-08, 03:06:05,VALID,1009.02,VALID,0,VALID,104,VALID,0,VALID,23.4584,VALID,93,VALID,0.602734,
2012-12-08, 03:07:05,VALID,1009,VALID,0,VALID,104,VALID,0,VALID,23.4797,VALID,93,VALID,0.594141,
2012-12-08, 03:08:05,VALID,1009.05,VALID,0,VALID,104,VALID,0,VALID,23.4992,VALID,96,VALID,0.625391,
2012-12-08, 03:09:05,VALID,1009.02,VALID,0,VALID,104,VALID,0,VALID,23.4602,VALID,91,VALID,0.695313,
2012-12-08, 03:10:05,VALID,1009.05,VALID,0,VALID,104,VALID,0,VALID,23.4815,VALID,98,VALID,0.848828,
2012-12-08, 03:11:05,VALID,1009.06,VALID,0,VALID,104,VALID,0,VALID,23.4407,VALID,84,VALID,0.645312,
2012-12-08, 03:12:05,VALID,1009.05,VALID,0,VALID,104,VALID,0,VALID,23.4389,VALID,84,VALID,0.63125,
2012-12-08, 03:13:05,VALID,1009.06,VALID,0,VALID,104,VALID,0,VALID,23.4407,VALID,87,VALID,0.707031,
2012-12-08, 03:14:05,VALID,1009.09,VALID,0,VALID,104,VALID,0,VALID,23.4407,VALID,101,VALID,0.920703,
2012-12-08, 03:15:05,VALID,1009.1,VALID,0,VALID,104,VALID,0,VALID,23.4212,VALID,104,VALID,1.05078,
2012-12-08, 03:16:05,VALID,1009.12,VALID,0,VALID,104,VALID,0,VALID,23.4212,VALID,110,VALID,1.06055,
2012-12-08, 03:17:05,VALID,1009.13,VALID,0,VALID,104,VALID,0,VALID,23.4017,VALID,98,VALID,1.21289,
2012-12-08, 03:18:05,VALID,1009.14,VALID,0,VALID,104,VALID,0,VALID,23.3823,VALID,96,VALID,1.04688,
2012-12-08, 03:19:05,VALID,1009.13,VALID,0,VALID,104,VALID,0,VALID,23.3823,VALID,95,VALID,0.61875,
2012-12-08, 03:20:05,VALID,1009.13,VALID,0,VALID,104,VALID,0,VALID,23.4017,VALID,83,VALID,0.474219,
2012-12-08, 03:21:05,VALID,1009.14,VALID,0,VALID,104,VALID,0,VALID,23.4017,VALID,63,VALID,0.364062,
2012-12-08, 03:22:05,VALID,1009.17,VALID,0,VALID,104,VALID,0,VALID,23.361,VALID,68,VALID,0.539063,
2012-12-08, 03:23:05,VALID,1009.2,VALID,0,VALID,104,VALID,0.112112,VALID,23.3805,VALID,89,VALID,0.599219,
2012-12-08, 03:24:05,VALID,1009.24,VALID,0,VALID,104,VALID,0,VALID,23.4212,VALID,87,VALID,0.476563,
2012-12-08, 03:25:05,VALID,1009.29,VALID,0,VALID,104,VALID,0,VALID,23.3823,VALID,94,VALID,0.642578,
2012-12-08, 03:26:05,VALID,1009.34,VALID,0,VALID,104,VALID,0,VALID,23.4017,VALID,98,VALID,0.540234,
2012-12-08, 03:27:05,VALID,1009.37,VALID,0,VALID,104,VALID,0,VALID,23.4212,VALID,116,VALID,1.00195,
2012-12-08, 03:28:05,VALID,1009.41,VALID,0,VALID,104,VALID,0,VALID,23.3823,VALID,127,VALID,0.951953,
2012-12-08, 03:29:05,VALID,1009.44,VALID,0,VALID,104,VALID,0,VALID,23.4017,VALID,95,VALID,1.0375,
2012-12-08, 03:30:05,VALID,1009.45,VALID,0,VALID,104,VALID,0,VALID,23.3628,VALID,85,VALID,1.38984,
2012-12-08, 03:31:05,VALID,1009.46,VALID,0,VALID,104,VALID,0.112112,VALID,23.4017,VALID,102,VALID,0.705469,
2012-12-08, 03:32:05,VALID,1009.47,VALID,0,VALID,104,VALID,0,VALID,23.3823,VALID,99,VALID,1.20391,
2012-12-08, 03:33:05,VALID,1009.45,VALID,0,VALID,104,VALID,0,VALID,23.322,VALID,78,VALID,1.43555,
2012-12-08, 03:34:05,VALID,1009.43,VALID,0,VALID,104,VALID,0,VALID,23.3433,VALID,90,VALID,0.888281,
2012-12-08, 03:35:05,VALID,1009.4,VALID,0,VALID,104,VALID,0,VALID,23.2831,VALID,102,VALID,0.534375,
2012-12-08, 03:36:05,VALID,1009.4,VALID,0,VALID,104,VALID,0,VALID,23.3043,VALID,85,VALID,0.855469,
2012-12-08, 03:37:05,VALID,1009.37,VALID,0,VALID,104,VALID,0.112112,VALID,23.3433,VALID,92,VALID,1.00703,
2012-12-08, 03:38:05,VALID,1009.38,VALID,0,VALID,104,VALID,0,VALID,23.2636,VALID,101,VALID,1.04336,
2012-12-08, 03:39:05,VALID,1009.35,VALID,0,VALID,104,VALID,0,VALID,23.3043,VALID,100,VALID,0.825,
2012-12-08, 03:40:05,VALID,1009.38,VALID,0,VALID,104,VALID,0,VALID,23.3238,VALID,109,VALID,0.5375,
2012-12-08, 03:41:05,VALID,1009.39,VALID,0,VALID,104,VALID,0,VALID,23.322,VALID,115,VALID,0.798047,
2012-12-08, 03:42:05,VALID,1009.4,VALID,0,VALID,104,VALID,0,VALID,23.3433,VALID,109,VALID,0.803125,
2012-12-08, 03:43:05,VALID,1009.39,VALID,0,VALID,104,VALID,0,VALID,23.3238,VALID,96,VALID,0.784375,
2012-12-08, 03:44:05,VALID,1009.42,VALID,0,VALID,104,VALID,0.112112,VALID,23.3628,VALID,89,VALID,0.613281,
2012-12-08, 03:45:05,VALID,1009.39,VALID,0,VALID,104,VALID,0,VALID,23.3628,VALID,73,VALID,0.663281,
2012-12-08, 03:46:05,VALID,1009.41,VALID,0,VALID,104,VALID,0,VALID,23.3433,VALID,68,VALID,0.971484,
2012-12-08, 03:47:05,VALID,1009.38,VALID,0,VALID,104,VALID,0,VALID,23.3238,VALID,68,VALID,0.674609,
2012-12-08, 03:48:05,VALID,1009.41,VALID,0,VALID,104,VALID,0,VALID,23.3043,VALID,68,VALID,0.346094,
2012-12-08, 03:49:05,VALID,1009.39,VALID,0,VALID,104,VALID,0,VALID,23.2848,VALID,68,VALID,0.127344,
2012-12-08, 03:50:05,VALID,1009.39,VALID,0,VALID,104,VALID,0,VALID,23.3433,VALID,69,VALID,0.446875,
2012-12-08, 03:51:05,VALID,1009.4,VALID,0,VALID,104,VALID,0,VALID,23.3238,VALID,68,VALID,0.610547,
2012-12-08, 03:52:05,VALID,1009.39,VALID,0,VALID,104,VALID,0,VALID,23.2848,VALID,68,VALID,0.49375,
2012-12-08, 03:53:05,VALID,1009.39,VALID,0,VALID,104,VALID,0,VALID,23.3043,VALID,68,VALID,0.294922,
2012-12-08, 03:54:05,VALID,1009.41,VALID,0,VALID,104,VALID,0,VALID,23.2654,VALID,68,VALID,0.555859,
2012-12-08, 03:55:05,VALID,1009.44,VALID,0,VALID,104,VALID,0,VALID,23.2636,VALID,68,VALID,0.532812,